Hartford Brainard Airport
KHFD : now visible

Airfield :











YOU CAN JOIN US ON...

 
LOGIN :

Register | Disclaimer

   EN    FR    IT 

 









Legend :    VFR   Marginal VFR   IFR   Intensive IFR   Very Intensive IFR
Visi :
Ceiling :
>= 8 km
>= 3000ft
5 to 8 km
1000 to 3000 ft
1500m to 5 km
500 to 1000 ft
800 to 1500m
200 to 500 ft
< 800m
< 200 ft
Symbols :   Thunderstorms  Fog  Heavy snow  Heavy precipitations  Wind > 20 kt







- Airport Elevation : 18 ft


KHFD - Hartford Brainard

CURRENT METAR :
  • 200853Z AUTO 00000KT 1/4SM FG VV002 08/07 A3023 RMK AO2 SLP237 T00780067 55001

EXPIRED METARs :
  • 200843Z AUTO 00000KT 1/4SM FG VV002 08/07 A3023 RMK AO2 T00780067
  • 200824Z AUTO 00000KT 4SM BR OVC001 08/07 A3023 RMK AO2 T00780067
  • 200815Z AUTO 00000KT 2SM BR OVC001 08/07 A3023 RMK AO2 VIS 1V5 T00780067
  • 200804Z AUTO 00000KT 1/2SM FG VV002 07/07 A3023 RMK AO2 T00720067
  • 200753Z AUTO 00000KT 1 1/2SM BR BKN001 08/07 A3023 RMK AO2 SLP235 T00780067
  • 200740Z AUTO 00000KT 1SM BR VV002 07/06 A3023 RMK AO2 VIS 1/2V5 T00720061
  • 200653Z AUTO 00000KT 8SM CLR 08/07 A3023 RMK AO2 SLP237 T00780072

TAF N/A
No reported NOTAMs for that airfield.



MET'MAP, your aeronautical weather chart ! - Copyright ORBIFLY December 2007 - Disclaimer

ORBIFLY MET'MAP TEAM :

Programming & Development : Alexandra Zaïnal
Concept & Development : Baudouin d'Aumeries
Co-Development & Prog : Marc-Olivier Méhu
Technical & hardware support : Manuel Goepfert

Contact : metmap@orbifly.com




SOURCES & CREDITS :

   NOAA       Earth
Advisory